Terminal Aerodrome Forecast
Issued by NWS

Home | Current Version | Previous Version | Text Only | Print | Product List | Glossary On
Versions: 1 2 3 4 5 6 7 8 9 10 11 12 13 14 15 16 17 18 19 20 21
000
FTUS43 KMQT 192300
TAFCMX
TAF
KCMX 192325Z 2000/2024 23009KT P6SM -SHRA OVC035
     FM200300 24009KT P6SM -SHRA OVC020
     FM200600 27008KT 5SM BR VCSH OVC008
     FM201200 28010KT 4SM -SHRA BR OVC005
     FM201500 29013KT P6SM BKN015
     FM202100 29009KT P6SM SCT025=

USA.gov is the U.S. government's official web portal to all federal, state and local government web resources and services.